Weather in Katanda

Russia / Altai Republic     50°09′53″N   86°10′39″E
temp.,
°C
wind,
m/s
gust,
m/s
humid.,
%
clouds,
%
prec.,
mm/h
press.,
hPa
HPBL,
m
14 may, fri
fri1401:00+1ene1178100 0.4 101615
04:000ne227595 0.0 101515
07:00+2w1174100 0.1 101659
10:00+4w2170100 0.1 1016445
13:00+7wsw225595 0.1 10151263
16:00+9w325872 0.5 10151232
19:00+7nw236899 2.5 1018667
22:00+4n228794 1.1 102227
15 may, sat
sat1501:00+3ne229055 1.2 102424
04:00+2ne2293100 0.0 102443
07:00+4ene2287100 0.0 1024184
10:00+6e226652 0.1 1024971
13:00+9ene2250100 0.1 10221193
16:00+12ene11395 0.0 10211507
19:00+12ene12385 0.0 10201475
22:00+7ne22555 0.0 102211
16 may, sun
sun1601:00+6ene11590 0.0 102111
04:00+4ne11660 0.0 102110
07:00+6ese01631 0.0 102134
10:00+11ssw11505 0.0 1020650
13:00+14wsw22395 0.0 10181441
16:00+15wsw223445 0.1 10161679
19:00+12e225779 0.7 1017183
22:00+9ene01655 0.2 101811
17 may, mon
mon1701:00+8n11685 0.3 101810
04:00+6w117474 0.1 101810
07:00+8wsw11703 0.1 101841
10:00+12wsw21577 0.0 1017585
13:00+15w234640 0.6 10161598
16:00+13nw235782 0.7 1016750
19:00+10s127758 2.9 1018134
22:00+8ne118139 0.4 101810
18 may, tue
tue1801:00+7nne117814 0.4 101810
04:00+6ene11795 0.0 101710
07:00+8sw11756 0.0 101640
10:00+12wsw22613 0.0 1014663
13:00+16sw334346 0.1 10111767
16:00+16w243847 0.2 10102077
19:00+15w244561 0.3 10081603
22:00+10nw3372100 0.7 100934